This is the latest recevied weather packets stored in our database for station/object W9WRP. If no packets are shown the sender has not sent any weather packets the latest 10 day(s).
| Time | Temp. | Humidity | Pressure | Rain* | Wind** | Luminosity | Snow |
|---|---|---|---|---|---|---|---|
| 1787875508 | 41.67° C | 18% | 1011.3 hPa | 0 mm | - | 98 W/m² | - |
| 1787875203 | 42.22° C | 17% | 1011.4 hPa | 0 mm | - | 100 W/m² | - |
| 1787874902 | 42.22° C | 18% | 1011.3 hPa | 0 mm | - | 102 W/m² | - |
| 1787874597 | 42.22° C | 18% | 1011.5 hPa | 0 mm | - | 106 W/m² | - |
| 1787874290 | 42.22° C | 18% | 1011.5 hPa | 0 mm | - | 111 W/m² | - |
| 1787873985 | 42.78° C | 18% | 1011.7 hPa | 0 mm | - | 115 W/m² | - |
| 1787873684 | 42.78° C | 18% | 1011.6 hPa | 0 mm | - | 117 W/m² | - |
| 1787873379 | 42.78° C | 18% | 1011.4 hPa | 0 mm | - | 120 W/m² | - |
| 1787873078 | 43.89° C | 17% | 1011.4 hPa | 0 mm | - | 125 W/m² | - |
| 1787872772 | 43.89° C | 17% | 1011.5 hPa | 0 mm | - | 137 W/m² | - |
| 1787872469 | 43.89° C | 16% | 1011.4 hPa | 0 mm | - | 136 W/m² | - |
| 1787872164 | 43.89° C | 16% | 1011.6 hPa | 0 mm | - | 244 W/m² | - |
| 1787871863 | 44.44° C | 16% | 1011.8 hPa | 0 mm | - | 346 W/m² | - |
| 1787871558 | 45° C | 17% | 1011.5 hPa | 0 mm | - | 293 W/m² | - |
| 1787871254 | 44.44° C | 17% | 1011.7 hPa | 0 mm | - | 455 W/m² | - |
| 1787870948 | 43.89° C | 17% | 1011.6 hPa | 0 mm | - | 337 W/m² | - |
| 1787870643 | 43.89° C | 17% | 1011.8 hPa | 0 mm | - | 346 W/m² | - |
| 1787870337 | 43.89° C | 17% | 1011.9 hPa | 0 mm | - | 342 W/m² | - |
| 1787870033 | 44.44° C | 17% | 1011.9 hPa | 0 mm | - | 433 W/m² | - |
| 1787869732 | 44.44° C | 16% | 1012 hPa | 0 mm | - | 254 W/m² | - |
| 1787869431 | 42.78° C | 17% | 1012 hPa | 0 mm | - | 451 W/m² | - |
| 1787869126 | 42.78° C | 17% | 1012.2 hPa | 0 mm | - | 281 W/m² | - |
| 1787868825 | 42.78° C | 17% | 1012.2 hPa | 0 mm | - | 216 W/m² | - |
| 1787868524 | 43.33° C | 17% | 1012.6 hPa | 0 mm | - | 187 W/m² | - |
| 1787868223 | 42.78° C | 17% | 1012.3 hPa | 0 mm | - | 267 W/m² | - |
* Rain latest hour (hover to see other rain measurements)
** Current wind speed in m/s (hover to see current wind gust speed)